Temperature
18 19 17 16 15 15 14 13 12 12 12 11 11 11 11 10 10 10 10 10 10 9 9 9 10 10 10 10 11 11 11 12 11 11 11 11 11 11 12 12 13 13 13
19 19 17 16 15 14 14 13 12 12 11 11 11 11 10 10 10 10 10 10 10 9 9 9 9 10 10 10 11 11 11 11 10 10 10 10 10 11 11 11 11 11 12
19 19 18 17 16 14 14 13 12 12 11 11 11 10 10 10 10 10 9 9 9 9 9 9 10 10 10 10 11 11 11 11 10 9 10 10 10 10 10 10 11 11 11
18 19 18 17 16 15 14 13 12 12 11 11 11 10 10 10 9 9 9 9 9 9 10 10 10 10 10 11 11 11 11 11 10 9 9 9 9 9 9 10 10 10 10
18 18 18 17 16 14 13 12 12 12 11 11 11 10 10 10 9 9 9 9 10 10 10 10 10 10 11 11 11 11 11 10 10 9 9 9 9 9 9 9 10 10 10
18 17 18 17 16 14 13 12 11 11 11 10 10 10 10 9 9 9 9 9 10 10 10 10 10 11 11 11 11 11 11 10 9 9 9 9 9 9 9 9 9 9 10
17 17 17 16 15 14 13 12 11 11 10 10 10 10 9 9 9 9 9 9 10 10 10 10 10 11 11 11 11 11 11 10 10 9 9 9 9 9 9 9 9 9 9
17 16 17 16 15 14 13 12 11 11 10 10 10 10 9 9 9 9 9 9 9 9 10 10 10 10 11 11 11 11 11 10 10 10 9 9 10 9 9 9 9 9 9
17 16 16 15 14 13 12 12 11 11 10 10 10 9 9 9 9 9 9 9 9 9 10 10 10 10 10 10 10 10 10 10 10 10 10 10 10 10 10 10 10 9 9
16 16 15 15 14 13 12 12 11 11 10 10 10 10 9 9 9 9 9 9 9 9 9 10 10 10 10 10 10 10 10 10 10 10 10 10 10 10 10 10 10 10 10
16 15 14 14 13 12 12 11 11 11 10 10 10 10 10 9 9 9 9 9 9 9 9 9 9 9 10 10 10 10 10 10 10 10 10 10 10 10 10 10 10 10 10
16 15 14 13 13 12 12 11 11 10 10 10 10 10 9 9 9 9 9 9 9 9 9 9 9 9 9 10 10 10 10 10 10 10 10 10 10 10 10 10 9 9 9
16 15 14 13 13 12 11 11 11 10 10 10 9 9 9 9 8 8 8 9 9 9 9 9 9 9 9 9 9 9 9 9 9 9 10 10 10 10 10 10 10 9 9
15 15 14 13 13 12 11 11 11 10 10 10 9 9 9 9 8 8 8 8 8 9 9 8 8 8 8 8 8 8 9 9 9 9 9 10 10 10 10 10 10 10 9
15 14 14 13 12 12 11 11 11 10 10 10 9 9 9 9 9 8 8 8 8 8 8 8 8 8 8 8 8 8 8 8 9 9 9 9 10 10 10 10 10 10 10
15 14 13 13 12 12 11 11 10 10 10 10 9 9 9 9 8 8 8 8 8 8 8 8 8 8 8 7 7 8 8 8 8 8 9 9 9 9 10 10 10 10 10
14 14 13 13 12 12 11 11 10 10 10 10 9 9 9 9 8 8 8 8 8 8 7 7 7 7 7 7 7 7 7 8 8 8 8 8 9 9 9 9 10 9 9
14 14 13 13 12 11 11 11 10 10 10 10 9 9 9 9 8 8 8 8 8 7 7 7 7 7 7 7 7 7 7 7 7 8 8 8 8 9 9 9 9 9 9
14 14 13 13 12 11 11 11 10 10 10 9 9 9 9 9 8 8 8 8 8 7 7 7 7 7 7 7 7 7 7 7 7 7 7 8 8 8 9 9 9 9 9
14 13 13 13 12 12 11 11 10 10 10 10 10 9 9 9 9 8 8 8 8 8 7 7 7 6 6 6 6 6 6 7 7 7 7 8 8 8 8 8 8 8 8
13 13 13 12 12 12 11 11 11 10 10 10 10 10 9 9 9 9 9 8 8 8 8 7 7 6 6 6 5 5 6 6 7 7 8 8 8 8 8 7 7 8 8
13 13 13 12 12 12 11 11 11 11 10 10 10 10 10 9 9 9 8 8 8 8 7 7 7 6 6 6 5 4 4 5 6 6 7 7 7 7 7 7 7 7 7
13 13 13 12 12 12 11 11 11 10 10 10 10 9 9 9 9 8 8 8 7 7 7 7 6 6 5 5 5 4 3 4 4 5 5 6 6 6 6 6 6 6 6
13 13 12 12 12 12 11 11 10 10 9 9 9 9 9 8 8 8 7 7 7 7 6 6 6 5 5 5 5 4 4 3 3 3 3 4 5 5 5 5 5 5 5
12 12 12 12 11 11 11 10 10 9 9 9 8 8 8 8 7 7 7 6 6 6 6 6 5 5 5 4 4 4 4 3 3 2 2 3 4 4 4 4 4 4 4
12 12 11 11 11 10 10 10 9 9 9 8 8 8 7 7 7 6 6 6 6 5 5 5 5 4 4 4 4 3 3 3 3 2 2 2 2 3 3 3 3 3 4
Wind_Speed
10 19 22 20 18 16 14 13 12 11 11 10 11 11 11 11 12 12 12 12 12 12 13 13 14 14 15 15 15 16 16 16 16 16 16 16 16 16 16 16 16 15 17
13 21 23 21 19 17 15 14 13 12 11 10 11 11 11 11 11 11 11 12 12 12 12 13 13 13 14 14 14 14 14 14 13 14 15 15 15 16 16 16 16 14 16
14 22 23 22 20 18 16 14 13 12 11 11 10 10 10 10 10 10 10 11 11 11 12 12 12 12 12 12 13 12 12 12 11 12 13 13 14 15 15 15 15 15 15
16 22 21 22 20 18 16 15 14 13 12 11 10 9 9 9 9 9 10 10 10 10 10 10 10 11 11 11 11 11 10 10 10 11 12 13 12 13 13 14 14 14 14
14 21 21 23 21 19 17 15 14 13 12 11 10 9 9 9 9 9 8 8 9 9 9 9 9 9 9 9 9 9 9 9 9 10 11 12 11 11 11 12 12 12 13
11 19 23 23 21 19 17 16 14 13 12 10 10 9 8 8 8 8 7 7 7 7 7 7 7 7 7 8 8 8 8 9 9 10 11 12 11 9 9 9 9 10 10
10 18 23 23 21 19 17 16 15 13 12 11 10 9 8 8 7 7 6 5 5 5 5 5 5 6 6 6 6 6 7 9 9 7 9 11 9 7 7 7 7 7 8
9 16 22 22 20 19 17 16 15 14 12 11 10 9 8 8 7 7 6 5 4 3 3 3 3 3 3 4 4 4 6 7 8 7 5 7 6 4 5 5 5 5 5
9 13 19 19 18 18 17 16 16 15 13 12 11 10 8 8 7 7 6 5 4 3 2 1 0 1 1 2 2 3 4 6 8 8 4 4 3 3 3 3 3 3 3
7 9 15 18 17 17 16 16 16 15 14 13 11 10 9 8 8 8 7 6 5 4 3 3 3 3 3 3 4 4 4 6 9 8 5 1 1 3 4 4 4 5 4
6 7 11 14 16 16 16 16 16 15 14 13 12 12 11 10 11 11 10 9 7 6 6 6 6 6 6 7 8 7 7 9 12 8 5 5 5 7 8 8 8 8 8
8 7 8 10 13 14 13 14 14 13 14 13 12 13 12 11 10 10 11 11 9 8 8 9 9 9 10 11 12 11 10 13 14 10 10 11 11 12 12 12 12 12 11
8 7 7 8 12 12 10 11 11 11 12 13 13 14 13 11 8 9 10 10 11 11 11 12 12 12 13 13 10 11 14 14 11 11 11 13 14 15 16 16 16 16 15
7 8 6 6 9 10 11 9 9 8 9 9 10 11 11 8 7 8 8 10 12 12 13 12 10 12 14 13 11 12 13 13 13 14 14 16 17 18 19 19 19 19 19
6 8 6 6 7 8 8 7 7 8 8 9 9 10 10 7 5 6 7 9 10 10 10 9 10 10 10 11 12 12 12 14 15 17 17 19 20 21 22 22 22 23 22
6 7 6 6 7 8 5 4 5 6 8 8 8 9 9 8 7 6 6 7 8 9 9 9 9 9 8 9 9 12 13 15 16 18 19 21 23 24 24 25 25 25 25
6 7 6 5 5 6 5 5 5 5 6 5 6 8 9 9 8 7 5 5 8 11 11 10 9 8 6 6 6 9 11 14 16 17 19 20 22 24 27 27 28 28 28
7 7 7 5 4 5 4 4 3 3 3 3 4 5 7 8 9 7 5 5 9 10 8 5 4 5 6 6 6 7 8 11 14 17 19 20 20 21 24 28 29 30 30
8 8 7 6 4 4 4 4 3 2 1 1 3 4 6 7 8 7 6 7 9 7 6 5 5 5 6 7 7 7 7 7 9 14 14 18 21 22 23 26 30 31 31
8 8 8 6 4 5 3 3 2 1 0 1 2 4 6 7 8 8 7 8 8 5 5 5 7 6 6 7 9 9 8 8 7 9 12 16 20 22 23 23 24 26 31
8 8 7 6 5 5 3 2 2 0 1 1 2 4 6 7 8 8 6 6 6 5 6 7 7 7 6 5 6 8 9 11 14 13 11 12 13 19 21 22 22 22 24
8 7 7 6 6 5 3 2 1 0 1 1 2 4 6 7 8 7 6 4 5 5 7 8 7 6 6 5 4 5 6 5 8 12 12 12 13 12 12 19 20 21 22
8 7 6 6 6 5 4 3 2 2 2 2 2 2 4 7 8 8 7 6 5 5 6 7 7 8 7 6 6 6 5 6 5 5 7 8 9 9 8 10 15 20 22
6 6 6 6 6 4 3 2 1 1 2 2 2 3 4 7 7 8 7 7 6 5 7 7 7 7 7 7 6 7 9 7 6 5 5 6 7 7 8 9 10 15 20
6 5 4 5 5 3 2 2 2 2 2 3 4 5 5 5 6 7 7 6 6 5 7 8 8 8 7 8 7 7 9 9 10 11 11 7 8 8 9 10 8 10 16
5 4 3 4 3 2 2 2 2 3 4 5 6 5 5 4 4 6 7 6 6 5 7 8 8 9 9 9 9 8 8 7 7 10 13 10 10 8 10 9 9 8 13
Wind_Direction
135 150 160 156 152 149 147 142 136 129 120 114 109 102 97 92 87 83 79 75 71 68 65 63 61 61 61 62 63 62 61 60 60 59 59 59 62 61 59 58 58 53 55
139 151 161 158 155 152 150 146 139 134 128 120 112 106 101 97 92 87 80 76 73 70 66 64 62 62 62 62 63 63 63 61 60 59 59 57 60 61 61 60 61 59 58
135 149 161 160 157 155 153 149 144 140 134 126 118 112 106 101 95 89 83 77 74 71 66 64 63 63 64 62 62 61 60 57 50 53 54 54 56 60 60 59 58 58 58
138 148 161 161 159 158 156 153 149 145 139 133 127 121 115 110 103 94 86 81 76 72 68 65 65 64 63 61 59 57 54 47 39 51 48 52 51 59 59 57 57 57 57
138 150 160 161 161 160 160 157 154 150 145 141 136 129 124 117 109 100 92 86 78 74 70 66 65 63 62 59 56 53 44 30 19 45 48 54 52 56 59 56 55 55 54
141 149 157 162 164 163 163 161 159 156 153 149 145 141 134 125 117 108 100 92 86 79 72 67 63 60 58 56 52 46 29 11 15 40 44 47 44 50 55 55 53 51 51
143 146 155 164 166 166 166 165 162 160 160 158 154 152 145 138 130 123 115 107 100 90 79 70 63 56 51 48 45 35 15 2 10 27 44 49 38 42 48 48 45 45 46
137 142 154 165 168 169 170 168 166 165 165 164 162 162 159 154 148 143 137 133 124 110 92 77 63 51 42 33 32 25 5 351 345 352 36 59 42 27 31 32 31 29 32
132 138 149 164 169 172 173 172 170 171 171 170 171 170 169 166 165 161 158 160 162 159 152 132 50 6 349 343 346 346 337 325 316 317 336 58 44 360 351 352 350 352 356
128 140 148 163 169 172 174 175 173 174 176 176 177 174 172 173 177 177 178 184 189 198 212 229 248 262 272 275 277 279 287 294 286 280 275 230 247 292 292 290 292 296 297
144 149 150 162 167 171 172 175 174 177 179 178 178 175 174 182 187 188 190 189 199 217 231 240 248 254 260 261 256 254 257 262 269 262 258 248 250 263 269 270 268 270 272
166 167 159 161 161 166 167 168 175 178 179 182 183 178 185 200 194 182 182 186 204 226 239 246 250 254 255 250 242 236 236 245 254 251 242 242 249 255 259 262 263 262 262
159 158 160 156 154 156 153 160 170 175 177 189 192 184 191 197 177 162 169 188 206 220 231 240 238 238 240 238 222 212 226 241 247 248 246 245 248 252 254 256 258 259 258
137 147 154 146 146 150 150 157 164 167 173 183 193 188 185 182 179 181 189 199 207 213 218 225 221 234 238 238 231 226 234 239 242 244 247 250 250 251 253 254 254 255 256
128 137 147 143 140 144 147 157 164 170 173 183 188 195 190 179 187 197 209 220 219 220 215 218 226 238 243 243 240 237 238 243 243 241 240 246 250 251 253 254 254 254 254
111 126 136 143 140 140 144 154 166 176 180 185 183 197 201 198 200 204 214 223 229 234 235 231 232 239 243 243 242 242 242 244 246 245 243 243 247 249 251 254 254 254 254
91 106 113 129 132 139 150 160 162 174 175 182 190 206 214 216 218 216 218 227 231 236 240 241 245 251 252 251 250 249 249 248 247 247 247 243 242 246 250 252 254 254 253
88 96 103 107 123 134 138 146 147 158 165 182 202 220 229 232 234 232 228 235 244 246 242 235 236 248 254 253 253 251 251 248 247 247 247 246 242 241 245 250 252 253 254
92 97 97 96 110 120 121 122 120 122 141 192 216 228 241 247 247 242 239 245 253 253 247 243 240 236 250 257 261 259 253 250 249 250 247 245 242 240 239 246 251 253 254
82 91 96 95 95 98 95 98 99 90 32 245 245 250 257 260 259 254 250 251 254 254 255 251 250 244 243 251 266 268 262 259 256 253 251 250 246 243 241 241 245 250 255
78 86 90 90 81 83 80 88 100 123 273 269 259 265 267 265 264 257 251 250 247 247 251 252 255 258 258 255 269 277 267 255 253 253 249 248 245 243 240 239 240 241 248
80 81 86 86 83 79 79 80 79 67 277 267 269 273 276 275 269 263 252 245 243 247 253 255 253 256 258 243 248 285 296 290 253 248 244 242 242 238 235 238 238 239 241
72 71 81 82 80 76 71 69 36 16 334 315 291 275 270 275 273 264 259 256 256 251 254 254 249 247 254 248 222 227 257 266 302 286 276 262 249 239 235 237 239 240 241
84 76 81 84 84 79 73 64 27 323 303 295 294 278 272 271 268 267 264 262 259 257 260 261 258 251 249 255 248 234 238 241 266 289 271 277 286 271 258 249 245 242 241
102 93 91 88 87 79 63 52 355 331 317 315 315 300 296 290 278 269 264 261 257 256 259 260 263 258 250 249 247 247 252 253 248 261 275 266 263 259 259 256 250 246 243
114 107 105 97 90 77 48 18 360 335 323 320 315 310 306 299 289 278 269 259 258 257 259 259 257 256 254 254 253 247 246 247 247 252 267 269 267 261 258 259 256 251 248
Height
1542 1542 1543 1544 1545 1546 1548 1549 1550 1551 1552 1553 1553 1554 1554 1554 1554 1554 1555 1554 1554 1554 1554 1554 1554 1553 1553 1553 1553 1553 1553 1553 1553 1553 1553 1553 1553 1553 1553 1553 1553 1554 1554
1541 1542 1543 1544 1545 1546 1548 1549 1551 1552 1553 1553 1554 1554 1555 1555 1555 1555 1555 1555 1555 1555 1555 1554 1554 1554 1554 1553 1554 1553 1554 1554 1554 1554 1554 1554 1554 1554 1554 1554 1554 1554 1554
1541 1541 1543 1544 1545 1546 1548 1549 1551 1552 1553 1554 1554 1555 1556 1556 1556 1556 1556 1556 1555 1555 1555 1555 1554 1554 1554 1554 1554 1554 1554 1555 1555 1555 1555 1555 1555 1555 1555 1555 1555 1554 1554
1541 1541 1542 1543 1545 1546 1548 1549 1551 1552 1553 1554 1555 1555 1556 1556 1556 1557 1556 1556 1556 1556 1555 1555 1555 1555 1555 1554 1554 1555 1555 1555 1556 1556 1556 1556 1556 1556 1556 1555 1555 1555 1555
1540 1541 1542 1543 1545 1546 1548 1549 1551 1552 1553 1554 1555 1556 1557 1557 1557 1557 1557 1557 1556 1556 1556 1556 1555 1555 1555 1555 1555 1555 1556 1556 1556 1556 1556 1556 1556 1556 1556 1555 1555 1555 1555
1540 1540 1541 1543 1545 1546 1548 1549 1551 1552 1554 1555 1555 1556 1557 1557 1557 1557 1557 1557 1557 1556 1556 1556 1556 1556 1556 1556 1556 1556 1556 1556 1556 1556 1556 1556 1556 1556 1556 1556 1555 1555 1555
1540 1540 1541 1542 1544 1546 1547 1549 1551 1552 1554 1555 1556 1557 1557 1557 1558 1557 1557 1557 1557 1557 1557 1556 1556 1556 1556 1556 1556 1556 1556 1556 1556 1556 1556 1556 1556 1556 1556 1556 1555 1555 1555
1540 1539 1540 1542 1544 1545 1547 1549 1551 1552 1554 1555 1556 1557 1557 1557 1557 1557 1557 1557 1557 1557 1557 1557 1557 1556 1556 1556 1556 1557 1556 1556 1556 1556 1556 1556 1556 1556 1555 1555 1555 1554 1554
1538 1538 1538 1541 1543 1545 1547 1549 1550 1552 1553 1554 1556 1556 1557 1557 1558 1557 1557 1557 1557 1557 1557 1557 1557 1556 1556 1556 1556 1556 1556 1556 1556 1556 1556 1556 1555 1555 1555 1555 1554 1554 1554
1537 1537 1537 1539 1541 1543 1546 1548 1550 1552 1553 1554 1555 1556 1557 1557 1557 1557 1557 1557 1557 1557 1557 1557 1556 1556 1556 1556 1556 1556 1556 1556 1555 1555 1555 1555 1555 1554 1554 1554 1553 1553 1553
1535 1536 1537 1538 1540 1542 1545 1547 1549 1551 1552 1553 1554 1555 1556 1556 1557 1557 1557 1557 1557 1557 1556 1556 1556 1555 1555 1555 1555 1554 1554 1554 1554 1554 1553 1553 1553 1553 1553 1552 1552 1552 1551
1533 1535 1537 1538 1539 1542 1544 1546 1548 1550 1551 1552 1553 1554 1555 1556 1556 1556 1556 1556 1556 1556 1555 1555 1555 1554 1554 1553 1553 1553 1553 1552 1552 1552 1551 1551 1551 1551 1550 1550 1550 1549 1549
1531 1533 1536 1538 1539 1541 1543 1545 1547 1548 1550 1551 1552 1553 1554 1555 1555 1555 1555 1555 1554 1554 1553 1553 1553 1552 1552 1551 1550 1550 1550 1550 1549 1549 1549 1549 1549 1548 1548 1547 1547 1546 1546
1530 1531 1534 1537 1538 1540 1542 1544 1546 1547 1549 1550 1551 1552 1553 1553 1553 1553 1553 1553 1552 1552 1551 1551 1550 1550 1549 1549 1548 1548 1547 1546 1546 1546 1546 1545 1545 1545 1544 1544 1544 1543 1543
1529 1530 1533 1536 1538 1539 1541 1543 1545 1546 1547 1548 1550 1551 1551 1551 1551 1551 1551 1551 1550 1550 1549 1549 1548 1547 1547 1546 1545 1544 1543 1543 1542 1541 1541 1541 1540 1540 1540 1540 1539 1539 1539
1528 1530 1532 1535 1537 1538 1540 1542 1543 1545 1546 1547 1548 1548 1549 1549 1549 1549 1549 1548 1548 1547 1547 1546 1545 1544 1543 1542 1541 1540 1539 1538 1537 1536 1536 1535 1535 1534 1534 1534 1534 1534 1534
1527 1529 1531 1533 1536 1537 1539 1541 1542 1543 1544 1545 1546 1546 1547 1547 1547 1546 1546 1545 1545 1544 1544 1542 1541 1540 1539 1538 1536 1535 1534 1533 1532 1531 1530 1529 1528 1528 1528 1528 1528 1528 1527
1527 1528 1530 1532 1535 1536 1538 1540 1541 1542 1543 1543 1544 1544 1544 1544 1544 1543 1542 1542 1541 1541 1540 1538 1537 1536 1534 1533 1531 1529 1528 1526 1525 1524 1523 1522 1521 1520 1520 1520 1520 1520 1520
1528 1529 1530 1532 1534 1536 1537 1538 1539 1540 1541 1541 1541 1541 1541 1541 1540 1540 1539 1538 1537 1536 1535 1534 1532 1531 1529 1527 1525 1523 1521 1519 1518 1517 1515 1514 1513 1512 1511 1511 1511 1511 1511
1529 1529 1530 1532 1534 1535 1536 1537 1538 1538 1539 1539 1538 1538 1538 1537 1537 1536 1535 1534 1533 1531 1530 1529 1527 1526 1524 1522 1519 1516 1513 1512 1510 1509 1507 1506 1505 1504 1503 1502 1502 1502 1502
1530 1531 1531 1532 1534 1534 1535 1536 1536 1537 1537 1537 1536 1536 1535 1534 1533 1532 1531 1529 1528 1526 1525 1524 1522 1520 1518 1517 1514 1509 1505 1503 1501 1500 1499 1498 1496 1496 1495 1494 1494 1493 1493
1531 1531 1532 1533 1533 1534 1535 1535 1535 1535 1535 1535 1534 1533 1532 1531 1530 1528 1527 1525 1524 1522 1520 1519 1517 1514 1512 1512 1510 1505 1498 1494 1492 1491 1490 1489 1488 1488 1487 1487 1486 1486 1485
1531 1532 1533 1533 1533 1534 1534 1534 1534 1534 1534 1533 1532 1531 1529 1528 1526 1525 1523 1521 1519 1517 1515 1513 1512 1509 1507 1506 1505 1503 1497 1489 1486 1484 1485 1485 1483 1481 1480 1480 1478 1478 1477
1532 1532 1533 1533 1533 1533 1533 1533 1533 1532 1531 1530 1529 1528 1526 1524 1522 1521 1519 1517 1514 1512 1510 1508 1506 1504 1502 1499 1498 1496 1493 1489 1485 1475 1474 1476 1476 1475 1474 1473 1471 1470 1469
1532 1532 1533 1533 1533 1533 1532 1532 1531 1530 1529 1528 1526 1524 1522 1520 1518 1516 1514 1512 1509 1507 1505 1502 1500 1498 1496 1493 1491 1489 1486 1483 1480 1475 1466 1465 1465 1465 1465 1464 1463 1462 1461
1531 1531 1532 1532 1532 1531 1531 1530 1529 1528 1526 1524 1522 1520 1518 1516 1514 1511 1509 1506 1504 1501 1499 1496 1494 1491 1489 1486 1484 1481 1479 1476 1473 1469 1462 1457 1455 1454 1455 1455 1454 1453 1452